owner,sensor,date,latitude,longitude,vertical_datum,wind_speed,wind_to_direction,wind_speed_of_gust,qcFlag 
WAVCIS,ioos:station:WAVCIS:CSI06:1,2016-11-01T00:00:00Z,28.8667,-90.4833,10.0,6.963,87.0,,'11111222,11111222,99999999' 
WAVCIS,ioos:station:WAVCIS:CSI06:1,2016-11-01T01:00:00Z,28.8667,-90.4833,10.0,6.995,83.0,,'11111222,11111222,99999999' 
WAVCIS,ioos:station:WAVCIS:CSI06:1,2016-11-01T02:00:00Z,28.8667,-90.4833,10.0,7.19,86.0,,'11111222,11111222,99999999' 
WAVCIS,ioos:station:WAVCIS:CSI06:1,2016-11-01T03:00:00Z,28.8667,-90.4833,10.0,7.2,93.0,,'11111222,11111222,99999999' 
WAVCIS,ioos:station:WAVCIS:CSI06:1,2016-11-01T04:00:00Z,28.8667,-90.4833,10.0,7.25,94.0,,'11111222,11111222,99999999' 
WAVCIS,ioos:station:WAVCIS:CSI06:1,2016-11-01T05:00:00Z,28.8667,-90.4833,10.0,6.833,99.0,,'11111222,11111222,99999999' 
WAVCIS,ioos:station:WAVCIS:CSI06:1,2016-11-01T06:00:00Z,28.8667,-90.4833,10.0,6.774,119.0,,'11111222,11111222,99999999' 
WAVCIS,ioos:station:WAVCIS:CSI06:1,2016-11-01T07:00:00Z,28.8667,-90.4833,10.0,7.05,120.0,,'11111222,11111222,99999999' 
WAVCIS,ioos:station:WAVCIS:CSI06:1,2016-11-01T08:00:00Z,28.8667,-90.4833,10.0,6.765,121.0,,'11111222,11111222,99999999' 
WAVCIS,ioos:station:WAVCIS:CSI06:1,2016-11-01T09:00:00Z,28.8667,-90.4833,10.0,5.784,122.0,,'11111222,11111222,99999999' 
WAVCIS,ioos:station:WAVCIS:CSI06:1,2016-11-01T10:00:00Z,28.8667,-90.4833,10.0,5.496,120.0,,'11111222,11111222,99999999' 
WAVCIS,ioos:station:WAVCIS:CSI06:1,2016-11-01T11:00:00Z,28.8667,-90.4833,10.0,6.154,121.0,,'11111222,11111222,99999999' 
WAVCIS,ioos:station:WAVCIS:CSI06:1,2016-11-01T12:00:00Z,28.8667,-90.4833,10.0,7.21,116.0,,'11111222,11111222,99999999' 
WAVCIS,ioos:station:WAVCIS:CSI06:1,2016-11-01T13:00:00Z,28.8667,-90.4833,10.0,6.889,122.0,,'11111222,11111222,99999999' 
WAVCIS,ioos:station:WAVCIS:CSI06:1,2016-11-01T14:00:00Z,28.8667,-90.4833,10.0,7.29,107.0,,'11111222,11111222,99999999' 
WAVCIS,ioos:station:WAVCIS:CSI06:1,2016-11-01T15:00:00Z,28.8667,-90.4833,10.0,6.92,104.0,,'11111222,11111222,99999999' 
WAVCIS,ioos:station:WAVCIS:CSI06:1,2016-11-01T16:00:00Z,28.8667,-90.4833,10.0,7.46,104.0,,'11111222,11111222,99999999' 
WAVCIS,ioos:station:WAVCIS:CSI06:1,2016-11-01T17:00:00Z,28.8667,-90.4833,10.0,6.843,108.0,,'11111222,11111222,99999999' 
WAVCIS,ioos:station:WAVCIS:CSI06:1,2016-11-01T18:00:00Z,28.8667,-90.4833,10.0,7.92,102.0,,'11111222,11111222,99999999' 
WAVCIS,ioos:station:WAVCIS:CSI06:1,2016-11-01T19:00:00Z,28.8667,-90.4833,10.0,8.56,105.0,,'11111222,11111222,99999999' 
WAVCIS,ioos:station:WAVCIS:CSI06:1,2016-11-01T20:00:00Z,28.8667,-90.4833,10.0,9.39,108.0,,'11111222,11111222,99999999' 
WAVCIS,ioos:station:WAVCIS:CSI06:1,2016-11-01T21:00:00Z,28.8667,-90.4833,10.0,9.23,107.0,,'11111222,11111222,99999999' 
WAVCIS,ioos:station:WAVCIS:CSI06:1,2016-11-01T22:00:00Z,28.8667,-90.4833,10.0,9.37,110.0,,'11111222,11111222,99999999' 
WAVCIS,ioos:station:WAVCIS:CSI06:1,2016-11-01T23:00:00Z,28.8667,-90.4833,10.0,10.83,103.0,,'11111222,11111222,99999999' 
WAVCIS,ioos:station:WAVCIS:CSI06:1,2016-11-02T00:00:00Z,28.8667,-90.4833,10.0,10.06,109.0,,'11111222,11111222,99999999' 
WAVCIS,ioos:station:WAVCIS:CSI06:1,2016-11-02T01:00:00Z,28.8667,-90.4833,10.0,9.5,109.0,,'11111222,11111222,99999999' 
WAVCIS,ioos:station:WAVCIS:CSI06:1,2016-11-02T02:00:00Z,28.8667,-90.4833,10.0,9.04,113.0,,'11111222,11111222,99999999' 
WAVCIS,ioos:station:WAVCIS:CSI06:1,2016-11-02T03:00:00Z,28.8667,-90.4833,10.0,9.3,116.0,,'11111222,11111222,99999999' 
WAVCIS,ioos:station:WAVCIS:CSI06:1,2016-11-02T04:00:00Z,28.8667,-90.4833,10.0,9.63,113.0,,'11111222,11111222,99999999' 
WAVCIS,ioos:station:WAVCIS:CSI06:1,2016-11-02T05:00:00Z,28.8667,-90.4833,10.0,9.01,119.0,,'11111222,11111222,99999999' 
WAVCIS,ioos:station:WAVCIS:CSI06:1,2016-11-02T06:00:00Z,28.8667,-90.4833,10.0,9.25,126.0,,'11111222,11111222,99999999' 
WAVCIS,ioos:station:WAVCIS:CSI06:1,2016-11-02T07:00:00Z,28.8667,-90.4833,10.0,9.31,119.0,,'11111222,11111222,99999999' 
WAVCIS,ioos:station:WAVCIS:CSI06:1,2016-11-02T08:00:00Z,28.8667,-90.4833,10.0,9.35,124.0,,'11111222,11111222,99999999' 
WAVCIS,ioos:station:WAVCIS:CSI06:1,2016-11-02T09:00:00Z,28.8667,-90.4833,10.0,9.63,129.0,,'11111222,11111222,99999999' 
WAVCIS,ioos:station:WAVCIS:CSI06:1,2016-11-02T10:00:00Z,28.8667,-90.4833,10.0,9.37,127.0,,'11111222,11111222,99999999' 
WAVCIS,ioos:station:WAVCIS:CSI06:1,2016-11-02T11:00:00Z,28.8667,-90.4833,10.0,8.37,125.0,,'11111222,11111222,99999999' 
WAVCIS,ioos:station:WAVCIS:CSI06:1,2016-11-02T12:00:00Z,28.8667,-90.4833,10.0,7.94,130.0,,'11111222,11111222,99999999' 
WAVCIS,ioos:station:WAVCIS:CSI06:1,2016-11-02T13:00:00Z,28.8667,-90.4833,10.0,8.47,126.0,,'11111222,11111222,99999999' 
WAVCIS,ioos:station:WAVCIS:CSI06:1,2016-11-02T14:00:00Z,28.8667,-90.4833,10.0,9.03,125.0,,'11111222,11111222,99999999' 
WAVCIS,ioos:station:WAVCIS:CSI06:1,2016-11-02T15:00:00Z,28.8667,-90.4833,10.0,9.35,117.0,,'11111222,11111222,99999999' 
WAVCIS,ioos:station:WAVCIS:CSI06:1,2016-11-02T16:00:00Z,28.8667,-90.4833,10.0,9.34,126.0,,'11111222,11111222,99999999' 
WAVCIS,ioos:station:WAVCIS:CSI06:1,2016-11-02T17:00:00Z,28.8667,-90.4833,10.0,9.33,119.0,,'11111222,11111222,99999999' 
WAVCIS,ioos:station:WAVCIS:CSI06:1,2016-11-02T18:00:00Z,28.8667,-90.4833,10.0,7.15,121.0,,'11111222,11111222,99999999' 
WAVCIS,ioos:station:WAVCIS:CSI06:1,2016-11-02T19:00:00Z,28.8667,-90.4833,10.0,6.989,110.0,,'11111222,11111222,99999999' 
WAVCIS,ioos:station:WAVCIS:CSI06:1,2016-11-02T20:00:00Z,28.8667,-90.4833,10.0,7.49,104.0,,'11111222,11111222,99999999' 
WAVCIS,ioos:station:WAVCIS:CSI06:1,2016-11-02T21:00:00Z,28.8667,-90.4833,10.0,7.38,102.0,,'11111222,11111222,99999999' 
WAVCIS,ioos:station:WAVCIS:CSI06:1,2016-11-02T22:00:00Z,28.8667,-90.4833,10.0,6.811,100.0,,'11111222,11111222,99999999' 
WAVCIS,ioos:station:WAVCIS:CSI06:1,2016-11-02T23:00:00Z,28.8667,-90.4833,10.0,8.52,92.0,,'11111222,11111222,99999999' 
WAVCIS,ioos:station:WAVCIS:CSI06:1,2016-11-03T00:00:00Z,28.8667,-90.4833,10.0,8.34,111.0,,'11111222,11111222,99999999' 
WAVCIS,ioos:station:WAVCIS:CSI06:1,2016-11-03T01:00:00Z,28.8667,-90.4833,10.0,9.45,106.0,,'11111222,11111222,99999999' 
WAVCIS,ioos:station:WAVCIS:CSI06:1,2016-11-03T02:00:00Z,28.8667,-90.4833,10.0,8.06,100.0,,'11111222,11111222,99999999' 
WAVCIS,ioos:station:WAVCIS:CSI06:1,2016-11-03T03:00:00Z,28.8667,-90.4833,10.0,8.09,91.0,,'11111222,11111222,99999999' 
WAVCIS,ioos:station:WAVCIS:CSI06:1,2016-11-03T04:00:00Z,28.8667,-90.4833,10.0,8.78,114.0,,'11111222,11111222,99999999' 
WAVCIS,ioos:station:WAVCIS:CSI06:1,2016-11-03T05:00:00Z,28.8667,-90.4833,10.0,8.65,111.0,,'11111222,11111222,99999999' 
WAVCIS,ioos:station:WAVCIS:CSI06:1,2016-11-03T06:00:00Z,28.8667,-90.4833,10.0,7.99,108.0,,'11111222,11111222,99999999' 
WAVCIS,ioos:station:WAVCIS:CSI06:1,2016-11-03T07:00:00Z,28.8667,-90.4833,10.0,7.65,114.0,,'11111222,11111222,99999999' 
WAVCIS,ioos:station:WAVCIS:CSI06:1,2016-11-03T08:00:00Z,28.8667,-90.4833,10.0,7.11,125.0,,'11111222,11111222,99999999' 
WAVCIS,ioos:station:WAVCIS:CSI06:1,2016-11-03T09:00:00Z,28.8667,-90.4833,10.0,6.852,122.0,,'11111222,11111222,99999999' 
WAVCIS,ioos:station:WAVCIS:CSI06:1,2016-11-03T10:00:00Z,28.8667,-90.4833,10.0,6.369,119.0,,'11111222,11111222,99999999' 
WAVCIS,ioos:station:WAVCIS:CSI06:1,2016-11-03T11:00:00Z,28.8667,-90.4833,10.0,8.1,119.0,,'11111222,11111222,99999999' 
WAVCIS,ioos:station:WAVCIS:CSI06:1,2016-11-03T12:00:00Z,28.8667,-90.4833,10.0,8.04,122.0,,'11111222,11111222,99999999' 
WAVCIS,ioos:station:WAVCIS:CSI06:1,2016-11-03T13:00:00Z,28.8667,-90.4833,10.0,6.252,120.0,,'11111222,11111222,99999999' 
WAVCIS,ioos:station:WAVCIS:CSI06:1,2016-11-03T14:00:00Z,28.8667,-90.4833,10.0,6.526,117.0,,'11111222,11111222,99999999' 
WAVCIS,ioos:station:WAVCIS:CSI06:1,2016-11-03T15:00:00Z,28.8667,-90.4833,10.0,4.476,102.0,,'11111222,11111222,99999999' 
WAVCIS,ioos:station:WAVCIS:CSI06:1,2016-11-03T16:00:00Z,28.8667,-90.4833,10.0,5.695,92.0,,'11111222,11111222,99999999' 
WAVCIS,ioos:station:WAVCIS:CSI06:1,2016-11-03T17:00:00Z,28.8667,-90.4833,10.0,6.189,83.0,,'11111222,11111222,99999999' 
WAVCIS,ioos:station:WAVCIS:CSI06:1,2016-11-03T18:00:00Z,28.8667,-90.4833,10.0,5.523,82.0,,'11111222,11111222,99999999' 
WAVCIS,ioos:station:WAVCIS:CSI06:1,2016-11-03T19:00:00Z,28.8667,-90.4833,10.0,5.96,68.0,,'11111222,11111222,99999999' 
WAVCIS,ioos:station:WAVCIS:CSI06:1,2016-11-03T20:00:00Z,28.8667,-90.4833,10.0,6.313,65.0,,'11111222,11111222,99999999' 
WAVCIS,ioos:station:WAVCIS:CSI06:1,2016-11-03T21:00:00Z,28.8667,-90.4833,10.0,6.373,57.0,,'11111222,11111222,99999999' 
WAVCIS,ioos:station:WAVCIS:CSI06:1,2016-11-03T22:00:00Z,28.8667,-90.4833,10.0,7.49,59.0,,'11111222,11111222,99999999' 
WAVCIS,ioos:station:WAVCIS:CSI06:1,2016-11-03T23:00:00Z,28.8667,-90.4833,10.0,6.863,63.0,,'11111222,11111222,99999999' 
WAVCIS,ioos:station:WAVCIS:CSI06:1,2016-11-04T00:00:00Z,28.8667,-90.4833,10.0,5.292,68.0,,'11111222,11111222,99999999' 
WAVCIS,ioos:station:WAVCIS:CSI06:1,2016-11-04T01:00:00Z,28.8667,-90.4833,10.0,5.542,72.0,,'11111222,11111222,99999999' 
WAVCIS,ioos:station:WAVCIS:CSI06:1,2016-11-04T02:00:00Z,28.8667,-90.4833,10.0,6.459,64.0,,'11111222,11111222,99999999' 
WAVCIS,ioos:station:WAVCIS:CSI06:1,2016-11-04T03:00:00Z,28.8667,-90.4833,10.0,5.737,75.0,,'11111222,11111222,99999999' 
WAVCIS,ioos:station:WAVCIS:CSI06:1,2016-11-04T04:00:00Z,28.8667,-90.4833,10.0,5.292,68.0,,'11111222,11111222,99999999' 
WAVCIS,ioos:station:WAVCIS:CSI06:1,2016-11-04T05:00:00Z,28.8667,-90.4833,10.0,4.887,87.0,,'11111222,11111222,99999999' 
WAVCIS,ioos:station:WAVCIS:CSI06:1,2016-11-04T06:00:00Z,28.8667,-90.4833,10.0,3.618,84.0,,'11111222,11111222,99999999' 
WAVCIS,ioos:station:WAVCIS:CSI06:1,2016-11-04T07:00:00Z,28.8667,-90.4833,10.0,2.612,67.0,,'11111222,11111222,99999999' 
WAVCIS,ioos:station:WAVCIS:CSI06:1,2016-11-04T08:00:00Z,28.8667,-90.4833,10.0,3.008,94.0,,'11111222,11111222,99999999' 
WAVCIS,ioos:station:WAVCIS:CSI06:1,2016-11-04T09:00:00Z,28.8667,-90.4833,10.0,3.049,78.0,,'11111222,11111222,99999999' 
WAVCIS,ioos:station:WAVCIS:CSI06:1,2016-11-04T10:00:00Z,28.8667,-90.4833,10.0,2.572,57.0,,'11111222,11111222,99999999' 
WAVCIS,ioos:station:WAVCIS:CSI06:1,2016-11-04T11:00:00Z,28.8667,-90.4833,10.0,1.637,42.0,,'11111222,11111222,99999999' 
WAVCIS,ioos:station:WAVCIS:CSI06:1,2016-11-04T12:00:00Z,28.8667,-90.4833,10.0,2.516,30.0,,'11111222,11111222,99999999' 
WAVCIS,ioos:station:WAVCIS:CSI06:1,2016-11-04T13:00:00Z,28.8667,-90.4833,10.0,3.249,23.0,,'11111222,11111222,99999999' 
WAVCIS,ioos:station:WAVCIS:CSI06:1,2016-11-04T14:00:00Z,28.8667,-90.4833,10.0,4.841,16.0,,'11111222,11111222,99999999' 
WAVCIS,ioos:station:WAVCIS:CSI06:1,2016-11-04T15:00:00Z,28.8667,-90.4833,10.0,5.22,14.0,,'11111222,11111222,99999999' 
WAVCIS,ioos:station:WAVCIS:CSI06:1,2016-11-04T16:00:00Z,28.8667,-90.4833,10.0,5.697,16.0,,'11111222,11111222,99999999' 
WAVCIS,ioos:station:WAVCIS:CSI06:1,2016-11-04T17:00:00Z,28.8667,-90.4833,10.0,4.708,19.0,,'11111222,11111222,99999999' 
WAVCIS,ioos:station:WAVCIS:CSI06:1,2016-11-04T18:00:00Z,28.8667,-90.4833,10.0,3.729,18.0,,'11111222,11111222,99999999' 
WAVCIS,ioos:station:WAVCIS:CSI06:1,2016-11-04T19:00:00Z,28.8667,-90.4833,10.0,2.439,14.0,,'11111222,11111222,99999999' 
WAVCIS,ioos:station:WAVCIS:CSI06:1,2016-11-04T20:00:00Z,28.8667,-90.4833,10.0,1.835,6.0,,'11111222,11111222,99999999' 
WAVCIS,ioos:station:WAVCIS:CSI06:1,2016-11-04T21:00:00Z,28.8667,-90.4833,10.0,2.02,17.0,,'11111222,11111222,99999999' 
WAVCIS,ioos:station:WAVCIS:CSI06:1,2016-11-04T22:00:00Z,28.8667,-90.4833,10.0,0.72,22.0,,'11111222,11111222,99999999' 
WAVCIS,ioos:station:WAVCIS:CSI06:1,2016-11-04T23:00:00Z,28.8667,-90.4833,10.0,0.332,171.0,,'11111222,11111222,99999999' 
WAVCIS,ioos:station:WAVCIS:CSI06:1,2016-11-05T00:00:00Z,28.8667,-90.4833,10.0,1.259,263.0,,'11111222,11111222,99999999' 
WAVCIS,ioos:station:WAVCIS:CSI06:1,2016-11-05T01:00:00Z,28.8667,-90.4833,10.0,3.05,289.0,,'11111222,11111222,99999999' 
WAVCIS,ioos:station:WAVCIS:CSI06:1,2016-11-05T02:00:00Z,28.8667,-90.4833,10.0,3.997,290.0,,'11111222,11111222,99999999' 
WAVCIS,ioos:station:WAVCIS:CSI06:1,2016-11-05T03:00:00Z,28.8667,-90.4833,10.0,3.86,296.0,,'11111222,11111222,99999999' 
WAVCIS,ioos:station:WAVCIS:CSI06:1,2016-11-05T04:00:00Z,28.8667,-90.4833,10.0,5.045,302.0,,'11111222,11111222,99999999' 
WAVCIS,ioos:station:WAVCIS:CSI06:1,2016-11-05T05:00:00Z,28.8667,-90.4833,10.0,4.905,307.0,,'11111222,11111222,99999999' 
WAVCIS,ioos:station:WAVCIS:CSI06:1,2016-11-05T06:00:00Z,28.8667,-90.4833,10.0,4.75,322.0,,'11111222,11111222,99999999' 
WAVCIS,ioos:station:WAVCIS:CSI06:1,2016-11-05T07:00:00Z,28.8667,-90.4833,10.0,6.148,36.0,,'11111222,11111222,99999999' 
WAVCIS,ioos:station:WAVCIS:CSI06:1,2016-11-05T08:00:00Z,28.8667,-90.4833,10.0,10.66,59.0,,'11111222,11111222,99999999' 
WAVCIS,ioos:station:WAVCIS:CSI06:1,2016-11-05T09:00:00Z,28.8667,-90.4833,10.0,10.14,61.0,,'11111222,11111222,99999999' 
WAVCIS,ioos:station:WAVCIS:CSI06:1,2016-11-05T10:00:00Z,28.8667,-90.4833,10.0,9.8,58.0,,'11111222,11111222,99999999' 
WAVCIS,ioos:station:WAVCIS:CSI06:1,2016-11-05T11:00:00Z,28.8667,-90.4833,10.0,9.66,59.0,,'11111222,11111222,99999999' 
WAVCIS,ioos:station:WAVCIS:CSI06:1,2016-11-05T12:00:00Z,28.8667,-90.4833,10.0,8.93,57.0,,'11111222,11111222,99999999' 
WAVCIS,ioos:station:WAVCIS:CSI06:1,2016-11-05T13:00:00Z,28.8667,-90.4833,10.0,8.53,58.0,,'11111222,11111222,99999999' 
WAVCIS,ioos:station:WAVCIS:CSI06:1,2016-11-05T14:00:00Z,28.8667,-90.4833,10.0,8.8,59.0,,'11111222,11111222,99999999' 
WAVCIS,ioos:station:WAVCIS:CSI06:1,2016-11-05T15:00:00Z,28.8667,-90.4833,10.0,9.36,60.0,,'11111222,11111222,99999999' 
WAVCIS,ioos:station:WAVCIS:CSI06:1,2016-11-05T16:00:00Z,28.8667,-90.4833,10.0,8.65,68.0,,'11111222,11111222,99999999' 
WAVCIS,ioos:station:WAVCIS:CSI06:1,2016-11-05T17:00:00Z,28.8667,-90.4833,10.0,7.2,67.0,,'11111222,11111222,99999999' 
WAVCIS,ioos:station:WAVCIS:CSI06:1,2016-11-05T18:00:00Z,28.8667,-90.4833,10.0,6.224,72.0,,'11111222,11111222,99999999' 
WAVCIS,ioos:station:WAVCIS:CSI06:1,2016-11-05T19:00:00Z,28.8667,-90.4833,10.0,5.401,70.0,,'11111222,11111222,99999999' 
WAVCIS,ioos:station:WAVCIS:CSI06:1,2016-11-05T20:00:00Z,28.8667,-90.4833,10.0,6.019,64.0,,'11111222,11111222,99999999' 
WAVCIS,ioos:station:WAVCIS:CSI06:1,2016-11-05T21:00:00Z,28.8667,-90.4833,10.0,5.269,57.0,,'11111222,11111222,99999999' 
WAVCIS,ioos:station:WAVCIS:CSI06:1,2016-11-05T22:00:00Z,28.8667,-90.4833,10.0,5.406,55.0,,'11111222,11111222,99999999' 
WAVCIS,ioos:station:WAVCIS:CSI06:1,2016-11-05T23:00:00Z,28.8667,-90.4833,10.0,4.874,59.0,,'11111222,11111222,99999999' 
WAVCIS,ioos:station:WAVCIS:CSI06:1,2016-11-06T00:00:00Z,28.8667,-90.4833,10.0,4.436,50.0,,'11111222,11111222,99999999' 
WAVCIS,ioos:station:WAVCIS:CSI06:1,2016-11-06T01:00:00Z,28.8667,-90.4833,10.0,4.807,44.0,,'11111222,11111222,99999999' 
WAVCIS,ioos:station:WAVCIS:CSI06:1,2016-11-06T02:00:00Z,28.8667,-90.4833,10.0,7.17,45.0,,'11111222,11111222,99999999' 
WAVCIS,ioos:station:WAVCIS:CSI06:1,2016-11-06T03:00:00Z,28.8667,-90.4833,10.0,5.374,38.0,,'11111222,11111222,99999999' 
WAVCIS,ioos:station:WAVCIS:CSI06:1,2016-11-06T04:00:00Z,28.8667,-90.4833,10.0,6.536,78.0,,'11111222,11111222,99999999' 
WAVCIS,ioos:station:WAVCIS:CSI06:1,2016-11-06T05:00:00Z,28.8667,-90.4833,10.0,6.286,95.0,,'11111222,11111222,99999999' 
WAVCIS,ioos:station:WAVCIS:CSI06:1,2016-11-06T06:00:00Z,28.8667,-90.4833,10.0,10.72,113.0,,'11111222,11111222,99999999' 
WAVCIS,ioos:station:WAVCIS:CSI06:1,2016-11-06T07:00:00Z,28.8667,-90.4833,10.0,11.33,107.0,,'11111222,11111222,99999999' 
WAVCIS,ioos:station:WAVCIS:CSI06:1,2016-11-06T08:00:00Z,28.8667,-90.4833,10.0,11.18,95.0,,'11111222,11111222,99999999' 
WAVCIS,ioos:station:WAVCIS:CSI06:1,2016-11-06T09:00:00Z,28.8667,-90.4833,10.0,10.38,104.0,,'11111222,11111222,99999999' 
WAVCIS,ioos:station:WAVCIS:CSI06:1,2016-11-06T10:00:00Z,28.8667,-90.4833,10.0,9.88,99.0,,'11111222,11111222,99999999' 
WAVCIS,ioos:station:WAVCIS:CSI06:1,2016-11-06T11:00:00Z,28.8667,-90.4833,10.0,9.83,102.0,,'11111222,11111222,99999999' 
WAVCIS,ioos:station:WAVCIS:CSI06:1,2016-11-06T12:00:00Z,28.8667,-90.4833,10.0,9.41,91.0,,'11111222,11111222,99999999' 
WAVCIS,ioos:station:WAVCIS:CSI06:1,2016-11-06T13:00:00Z,28.8667,-90.4833,10.0,10.36,99.0,,'11111222,11111222,99999999' 
WAVCIS,ioos:station:WAVCIS:CSI06:1,2016-11-06T14:00:00Z,28.8667,-90.4833,10.0,9.18,109.0,,'11111222,11111222,99999999' 
WAVCIS,ioos:station:WAVCIS:CSI06:1,2016-11-06T15:00:00Z,28.8667,-90.4833,10.0,9.82,102.0,,'11111222,11111222,99999999' 
WAVCIS,ioos:station:WAVCIS:CSI06:1,2016-11-06T16:00:00Z,28.8667,-90.4833,10.0,8.57,93.0,,'11111222,11111222,99999999' 
WAVCIS,ioos:station:WAVCIS:CSI06:1,2016-11-06T17:00:00Z,28.8667,-90.4833,10.0,8.67,89.0,,'11111222,11111222,99999999' 
WAVCIS,ioos:station:WAVCIS:CSI06:1,2016-11-06T18:00:00Z,28.8667,-90.4833,10.0,8.98,98.0,,'11111222,11111222,99999999' 
WAVCIS,ioos:station:WAVCIS:CSI06:1,2016-11-06T19:00:00Z,28.8667,-90.4833,10.0,6.407,99.0,,'11111222,11111222,99999999' 
WAVCIS,ioos:station:WAVCIS:CSI06:1,2016-11-06T20:00:00Z,28.8667,-90.4833,10.0,8.1,73.0,,'11111222,11111222,99999999' 
WAVCIS,ioos:station:WAVCIS:CSI06:1,2016-11-06T21:00:00Z,28.8667,-90.4833,10.0,9.58,82.0,,'11111222,11111222,99999999' 
WAVCIS,ioos:station:WAVCIS:CSI06:1,2016-11-06T22:00:00Z,28.8667,-90.4833,10.0,8.65,73.0,,'11111222,11111222,99999999' 
WAVCIS,ioos:station:WAVCIS:CSI06:1,2016-11-06T23:00:00Z,28.8667,-90.4833,10.0,9.53,73.0,,'11111222,11111222,99999999' 
WAVCIS,ioos:station:WAVCIS:CSI06:1,2016-11-07T00:00:00Z,28.8667,-90.4833,10.0,8.89,62.0,,'11111222,11111222,99999999' 
WAVCIS,ioos:station:WAVCIS:CSI06:1,2016-11-07T01:00:00Z,28.8667,-90.4833,10.0,9.92,61.0,,'11111222,11111222,99999999' 
WAVCIS,ioos:station:WAVCIS:CSI06:1,2016-11-07T02:00:00Z,28.8667,-90.4833,10.0,10.73,56.0,,'11111222,11111222,99999999' 
WAVCIS,ioos:station:WAVCIS:CSI06:1,2016-11-07T03:00:00Z,28.8667,-90.4833,10.0,10.87,56.0,,'11111222,11111222,99999999' 
WAVCIS,ioos:station:WAVCIS:CSI06:1,2016-11-07T04:00:00Z,28.8667,-90.4833,10.0,11.28,55.0,,'11111222,11111222,99999999' 
WAVCIS,ioos:station:WAVCIS:CSI06:1,2016-11-07T05:00:00Z,28.8667,-90.4833,10.0,9.96,61.0,,'11111222,11111222,99999999' 
WAVCIS,ioos:station:WAVCIS:CSI06:1,2016-11-07T06:00:00Z,28.8667,-90.4833,10.0,8.71,71.0,,'11111222,11111222,99999999' 
WAVCIS,ioos:station:WAVCIS:CSI06:1,2016-11-07T07:00:00Z,28.8667,-90.4833,10.0,3.28,152.0,,'11111222,11111222,99999999' 
WAVCIS,ioos:station:WAVCIS:CSI06:1,2016-11-07T08:00:00Z,28.8667,-90.4833,10.0,4.672,121.0,,'11111222,11111222,99999999' 
WAVCIS,ioos:station:WAVCIS:CSI06:1,2016-11-07T09:00:00Z,28.8667,-90.4833,10.0,7.52,111.0,,'11111222,11111222,99999999' 
WAVCIS,ioos:station:WAVCIS:CSI06:1,2016-11-07T10:00:00Z,28.8667,-90.4833,10.0,7.81,104.0,,'11111222,11111222,99999999' 
WAVCIS,ioos:station:WAVCIS:CSI06:1,2016-11-07T11:00:00Z,28.8667,-90.4833,10.0,8.09,81.0,,'11111222,11111222,99999999' 
WAVCIS,ioos:station:WAVCIS:CSI06:1,2016-11-07T12:00:00Z,28.8667,-90.4833,10.0,9.21,83.0,,'11111222,11111222,99999999' 
WAVCIS,ioos:station:WAVCIS:CSI06:1,2016-11-07T13:00:00Z,28.8667,-90.4833,10.0,7.47,106.0,,'11111222,11111222,99999999' 
WAVCIS,ioos:station:WAVCIS:CSI06:1,2016-11-07T14:00:00Z,28.8667,-90.4833,10.0,8.05,82.0,,'11111222,11111222,99999999' 
WAVCIS,ioos:station:WAVCIS:CSI06:1,2016-11-07T15:00:00Z,28.8667,-90.4833,10.0,5.607,82.0,,'11111222,11111222,99999999' 
WAVCIS,ioos:station:WAVCIS:CSI06:1,2016-11-07T16:00:00Z,28.8667,-90.4833,10.0,6.224,163.0,,'11111222,11111222,99999999' 
WAVCIS,ioos:station:WAVCIS:CSI06:1,2016-11-07T17:00:00Z,28.8667,-90.4833,10.0,7.23,138.0,,'11111222,11111222,99999999' 
WAVCIS,ioos:station:WAVCIS:CSI06:1,2016-11-07T18:00:00Z,28.8667,-90.4833,10.0,6.889,144.0,,'11111222,11111222,99999999' 
WAVCIS,ioos:station:WAVCIS:CSI06:1,2016-11-07T19:00:00Z,28.8667,-90.4833,10.0,6.608,137.0,,'11111222,11111222,99999999' 
WAVCIS,ioos:station:WAVCIS:CSI06:1,2016-11-07T20:00:00Z,28.8667,-90.4833,10.0,7.02,140.0,,'11111222,11111222,99999999' 
WAVCIS,ioos:station:WAVCIS:CSI06:1,2016-11-07T21:00:00Z,28.8667,-90.4833,10.0,6.209,138.0,,'11111222,11111222,99999999' 
WAVCIS,ioos:station:WAVCIS:CSI06:1,2016-11-07T22:00:00Z,28.8667,-90.4833,10.0,5.936,139.0,,'11111222,11111222,99999999' 
WAVCIS,ioos:station:WAVCIS:CSI06:1,2016-11-07T23:00:00Z,28.8667,-90.4833,10.0,6.41,140.0,,'11111222,11111222,99999999' 
WAVCIS,ioos:station:WAVCIS:CSI06:1,2016-11-08T00:00:00Z,28.8667,-90.4833,10.0,7.84,168.0,,'11111222,11111222,99999999' 
WAVCIS,ioos:station:WAVCIS:CSI06:1,2016-11-08T01:00:00Z,28.8667,-90.4833,10.0,8.38,123.0,,'11111222,11111222,99999999' 
WAVCIS,ioos:station:WAVCIS:CSI06:1,2016-11-08T02:00:00Z,28.8667,-90.4833,10.0,11.52,171.0,,'11111222,11111222,99999999' 
WAVCIS,ioos:station:WAVCIS:CSI06:1,2016-11-08T03:00:00Z,28.8667,-90.4833,10.0,5.898,120.0,,'11111222,11111222,99999999' 
WAVCIS,ioos:station:WAVCIS:CSI06:1,2016-11-08T04:00:00Z,28.8667,-90.4833,10.0,8.51,76.0,,'11111222,11111222,99999999' 
WAVCIS,ioos:station:WAVCIS:CSI06:1,2016-11-08T05:00:00Z,28.8667,-90.4833,10.0,4.601,81.0,,'11111222,11111222,99999999' 
WAVCIS,ioos:station:WAVCIS:CSI06:1,2016-11-08T06:00:00Z,28.8667,-90.4833,10.0,3.597,167.0,,'11111222,11111222,99999999' 
WAVCIS,ioos:station:WAVCIS:CSI06:1,2016-11-08T07:00:00Z,28.8667,-90.4833,10.0,9.6,130.0,,'11111222,11111222,99999999' 
WAVCIS,ioos:station:WAVCIS:CSI06:1,2016-11-08T08:00:00Z,28.8667,-90.4833,10.0,6.35,101.0,,'11111222,11111222,99999999' 
WAVCIS,ioos:station:WAVCIS:CSI06:1,2016-11-08T09:00:00Z,28.8667,-90.4833,10.0,8.11,85.0,,'11111222,11111222,99999999' 
WAVCIS,ioos:station:WAVCIS:CSI06:1,2016-11-08T10:00:00Z,28.8667,-90.4833,10.0,11.53,81.0,,'11111222,11111222,99999999' 
WAVCIS,ioos:station:WAVCIS:CSI06:1,2016-11-08T11:00:00Z,28.8667,-90.4833,10.0,13.2,89.0,,'11111222,11111222,99999999' 
WAVCIS,ioos:station:WAVCIS:CSI06:1,2016-11-08T12:00:00Z,28.8667,-90.4833,10.0,12.44,86.0,,'11111222,11111222,99999999' 
WAVCIS,ioos:station:WAVCIS:CSI06:1,2016-11-08T13:00:00Z,28.8667,-90.4833,10.0,10.7,89.0,,'11111222,11111222,99999999' 
WAVCIS,ioos:station:WAVCIS:CSI06:1,2016-11-08T14:00:00Z,28.8667,-90.4833,10.0,11.65,88.0,,'11111222,11111222,99999999' 
WAVCIS,ioos:station:WAVCIS:CSI06:1,2016-11-08T15:00:00Z,28.8667,-90.4833,10.0,12.34,93.0,,'11111222,11111222,99999999' 
WAVCIS,ioos:station:WAVCIS:CSI06:1,2016-11-08T16:00:00Z,28.8667,-90.4833,10.0,11.29,106.0,,'11111222,11111222,99999999' 
WAVCIS,ioos:station:WAVCIS:CSI06:1,2016-11-08T17:00:00Z,28.8667,-90.4833,10.0,10.56,113.0,,'11111222,11111222,99999999' 
WAVCIS,ioos:station:WAVCIS:CSI06:1,2016-11-08T18:00:00Z,28.8667,-90.4833,10.0,9.41,109.0,,'11111222,11111222,99999999' 
WAVCIS,ioos:station:WAVCIS:CSI06:1,2016-11-08T19:00:00Z,28.8667,-90.4833,10.0,8.24,97.0,,'11111222,11111222,99999999' 
WAVCIS,ioos:station:WAVCIS:CSI06:1,2016-11-08T20:00:00Z,28.8667,-90.4833,10.0,7.96,89.0,,'11111222,11111222,99999999' 
WAVCIS,ioos:station:WAVCIS:CSI06:1,2016-11-08T21:00:00Z,28.8667,-90.4833,10.0,6.026,116.0,,'11111222,11111222,99999999' 
WAVCIS,ioos:station:WAVCIS:CSI06:1,2016-11-08T22:00:00Z,28.8667,-90.4833,10.0,10.58,66.0,,'11111222,11111222,99999999' 
WAVCIS,ioos:station:WAVCIS:CSI06:1,2016-11-08T23:00:00Z,28.8667,-90.4833,10.0,10.37,49.0,,'11111222,11111222,99999999' 
WAVCIS,ioos:station:WAVCIS:CSI06:1,2016-11-09T00:00:00Z,28.8667,-90.4833,10.0,10.16,46.0,,'11111222,11111222,99999999' 
WAVCIS,ioos:station:WAVCIS:CSI06:1,2016-11-09T01:00:00Z,28.8667,-90.4833,10.0,8.97,39.0,,'11111222,11111222,99999999' 
WAVCIS,ioos:station:WAVCIS:CSI06:1,2016-11-09T02:00:00Z,28.8667,-90.4833,10.0,11.57,35.0,,'11111222,11111222,99999999' 
WAVCIS,ioos:station:WAVCIS:CSI06:1,2016-11-09T03:00:00Z,28.8667,-90.4833,10.0,11.04,35.0,,'11111222,11111222,99999999' 
WAVCIS,ioos:station:WAVCIS:CSI06:1,2016-11-09T04:00:00Z,28.8667,-90.4833,10.0,12.18,30.0,,'11111222,11111222,99999999' 
WAVCIS,ioos:station:WAVCIS:CSI06:1,2016-11-09T05:00:00Z,28.8667,-90.4833,10.0,12.17,32.0,,'11111222,11111222,99999999' 
WAVCIS,ioos:station:WAVCIS:CSI06:1,2016-11-09T06:00:00Z,28.8667,-90.4833,10.0,12.12,33.0,,'11111222,11111222,99999999' 